(32) Pomona
ephemeris date magn radius delta ra dec elong phase
Opposition3 Sep 202411.52.748 AU1.745 AU22h39m-00°24'172.5°2.7°
Today15 Sep 202411.72.754 AU1.771 AU22h30m-01°38'164.6°5.6°
(32) Pomona - 2024-09-15
astro.vanbuitenen.nl


 
-1 year
-1 month
-1 day
Now
+1 day
+1 month
+1 year

The interactive orbit chart above shows the body's path through the solar system and its position at the given date. Green and blue lines are shown perpendicular to the ecliptic plane: Green if the path is above the ecliptic plane, blue if it is below. (Left-click and drag to rotate the view; Right-click and drag to move the view; Use scroll wheel to zoom in our out.)

The orbital elements of Pomona are:

            e (Eccentricity)                : 0.0816492
            a (Semimajor axis)              : 2.5867736
            i (Inclination)                 : 5.52221
            Ω (Longitude of ascending node) : 220.36152
            ω (Argument of perihelion)      : 338.14768
            M (Mean anomaly)                : 146.94438
            Epoch                           : 2024 Oct 17

            L (Longitude of perihelion)     : 198.60112
            B (Latitude of perihelion)      : -2.05271
            P (Orbital period in years)     : 4.16            
        

The light curve chart below shows the estimated development of the minor planet's magnitude.


The all-sky chart below shows the path of the minor planet over the same period as the light curve. The current position is marked yellow.





The following chart shows the path of the minor planet in the next few days. The field of view is optimized for (~10x50) binoculars and finderscopes. A more printer-friendly version of the same chart can be found below.




Ephemerides:
Date       Time       RA (2000)    DEC (2000)    delta   radius  elong  phase   PA    magn
2024-09-15 00:00 UT   22 30 27.8   -01 38 02     1.771    2.754  164.6    5.6    96   11.7 
2024-09-15 16:56 UT   22 29 56.7   -01 42 36     1.774    2.754  163.9    5.8    94   11.7 
2024-09-16 00:00 UT   22 29 43.8   -01 44 30     1.775    2.754  163.6    5.9    94   11.7 
2024-09-17 00:00 UT   22 29 00.6   -01 50 56     1.779    2.755  162.5    6.3    92   11.7 
2024-09-18 00:00 UT   22 28 18.3   -01 57 21     1.784    2.755  161.5    6.7    90   11.7 
2024-09-19 00:00 UT   22 27 36.9   -02 03 43     1.789    2.756  160.4    7.0    89   11.8 
2024-09-20 00:00 UT   22 26 56.4   -02 10 04     1.794    2.756  159.3    7.4    87   11.8 
2024-09-21 00:00 UT   22 26 16.8   -02 16 21     1.799    2.757  158.2    7.8    86   11.8 
2024-09-22 00:00 UT   22 25 38.3   -02 22 36     1.805    2.757  157.1    8.1    85   11.8 
2024-09-23 00:00 UT   22 25 00.8   -02 28 47     1.811    2.758  156.0    8.5    84   11.9 
2024-09-24 00:00 UT   22 24 24.5   -02 34 54     1.817    2.758  154.9    8.9    83   11.9 
2024-09-25 00:00 UT   22 23 49.2   -02 40 58     1.823    2.759  153.8    9.2    83   11.9 
2024-09-26 00:00 UT   22 23 15.1   -02 46 57     1.829    2.759  152.7    9.6    82   11.9 
2024-09-27 00:00 UT   22 22 42.2   -02 52 51     1.836    2.760  151.6    9.9    81   11.9 
2024-09-28 00:00 UT   22 22 10.4   -02 58 41     1.843    2.760  150.5   10.3    81   12.0 
2024-09-29 00:00 UT   22 21 40.0   -03 04 25     1.851    2.761  149.4   10.6    80   12.0 
2024-09-30 00:00 UT   22 21 10.8   -03 10 04     1.858    2.761  148.3   11.0    80   12.0 
2024-10-01 00:00 UT   22 20 42.9   -03 15 37     1.866    2.761  147.2   11.3    79   12.0 
2024-10-02 00:00 UT   22 20 16.4   -03 21 04     1.874    2.762  146.2   11.6    79   12.1 
2024-10-03 00:00 UT   22 19 51.2   -03 26 25     1.882    2.762  145.1   12.0    78   12.1 
2024-10-04 00:00 UT   22 19 27.4   -03 31 40     1.890    2.763  144.0   12.3    78   12.1 
2024-10-05 00:00 UT   22 19 05.0   -03 36 47     1.899    2.763  142.9   12.6    77   12.1 
2024-10-06 00:00 UT   22 18 43.9   -03 41 48     1.908    2.764  141.8   12.9    77   12.1 
2024-10-07 00:00 UT   22 18 24.3   -03 46 41     1.917    2.764  140.8   13.2    77   12.2 
2024-10-08 00:00 UT   22 18 06.2   -03 51 28     1.926    2.765  139.7   13.5    76   12.2 
2024-10-09 00:00 UT   22 17 49.4   -03 56 06     1.935    2.765  138.6   13.8    76   12.2 
2024-10-10 00:00 UT   22 17 34.2   -04 00 38     1.945    2.765  137.6   14.1    76   12.2 
2024-10-11 00:00 UT   22 17 20.4   -04 05 01     1.955    2.766  136.5   14.4    75   12.3 
2024-10-12 00:00 UT   22 17 08.0   -04 09 17     1.965    2.766  135.5   14.6    75   12.3 
2024-10-13 00:00 UT   22 16 57.1   -04 13 24     1.975    2.767  134.5   14.9    75   12.3 
2024-10-14 00:00 UT   22 16 47.7   -04 17 23     1.985    2.767  133.4   15.2    75   12.3 
2024-10-15 00:00 UT   22 16 39.8   -04 21 15     1.996    2.768  132.4   15.4    74   12.3 


    Terminology:
            
    delta:  distance between minor planet and earth in AU
    radius: distance between minor planet and sun in AU
    magn:   magnitude (brightness) estimate    
    ra:     right ascension in hours (24h = 360deg)
    dec:    declination in degrees
    elong:  elongation in degrees (angle sun-earth-minor planet)    
    phase:  phase angle in degrees (angle sun-minor planet-earth)        
    AU:     Astronomical Unit (mean distance between earth and sun: 149597870.7 km
    

Orbital elements provided by the MPC (Minor Planet Center).
Calculations by a modified version of AAPlus, a C# implementation of the AA+ project by PJ Naughter from the algorithms presented in the book "Astronomical Algorithms" by Jean Meeus.
NGC2000 dso catalog and star labels from VizieR as provided by the Strasbourg astronomical Data Center.
Tycho2 catalog from the ESO archive.